| time (UTC) | temp F | wind direction | speed MPH | gust MPH | rain 1hr in | rain 24hr in | rain mn in | humidity % | barometer mb |
| 20260905230108 | 76 | 0 | 0.0 | 1.0 | 0.00 | 0.58 | 0.56 | 91 | 1011.8 |
| 20260905224601 | 76 | 0 | 0.0 | 0.0 | 0.00 | 0.66 | 0.56 | 91 | 1011.8 |
| 20260905223101 | 76 | 0 | 0.0 | 1.0 | 0.00 | 0.66 | 0.56 | 90 | 1011.8 |
| 20260905221557 | 76 | 0 | 0.0 | 1.0 | 0.00 | 0.66 | 0.56 | 90 | 1011.6 |
| 20260905220104 | 76 | 0 | 0.0 | 1.0 | 0.00 | 0.66 | 0.56 | 90 | 1011.5 |
| 20260905214557 | 76 | 0 | 0.0 | 3.0 | 0.00 | 0.70 | 0.56 | 90 | 1011.6 |
| 20260905213101 | 76 | 0 | 0.0 | 2.0 | 0.00 | 0.70 | 0.56 | 88 | 1011.7 |
| 20260905211605 | 76 | 0 | 0.0 | 2.0 | 0.00 | 0.70 | 0.56 | 89 | 1011.6 |
| 20260905210059 | 76 | 0 | 0.0 | 0.0 | 0.00 | 0.70 | 0.56 | 90 | 1011.7 |
| 20260905204553 | 76 | 0 | 0.0 | 2.0 | 0.00 | 0.70 | 0.56 | 91 | 1011.7 |
| 20260905203104 | 75 | 0 | 0.0 | 3.0 | 0.00 | 0.70 | 0.56 | 92 | 1011.6 |
| 20260905201608 | 75 | 0 | 0.0 | 1.0 | 0.00 | 0.70 | 0.56 | 94 | 1011.5 |
| 20260905200059 | 75 | 0 | 0.0 | 2.0 | 0.01 | 0.70 | 0.56 | 93 | 1011.6 |
| 20260905194555 | 75 | 0 | 0.0 | 2.0 | 0.01 | 0.70 | 0.56 | 94 | 1011.9 |
| 20260905193055 | 75 | 0 | 0.0 | 1.0 | 0.03 | 0.70 | 0.56 | 94 | 1011.9 |
| 20260905191601 | 75 | 0 | 0.0 | 1.0 | 0.03 | 0.70 | 0.56 | 94 | 1012.1 |
| 20260905190104 | 75 | 0 | 0.0 | 0.0 | 0.02 | 0.69 | 0.55 | 94 | 1012.7 |
| 20260905184612 | 75 | 0 | 0.0 | 0.0 | 0.02 | 0.69 | 0.55 | 93 | 1012.6 |
| 20260905183110 | 75 | 0 | 0.0 | 1.0 | 0.00 | 0.67 | 0.52 | 93 | 1012.6 |
| 20260905181601 | 75 | 0 | 0.0 | 2.0 | 0.01 | 0.67 | 0.52 | 92 | 1012.3 |
| 20260905180104 | 75 | 0 | 0.0 | 2.0 | 0.09 | 0.67 | 0.52 | 95 | 1012.6 |
| 20260905174605 | 74 | 0 | 0.0 | 2.0 | 0.21 | 0.67 | 0.52 | 94 | 1013.1 |
| 20260905173101 | 73 | 0 | 0.0 | 1.0 | 0.34 | 0.67 | 0.52 | 94 | 1013.1 |
| 20260905171559 | 73 | 0 | 0.0 | 2.0 | 0.44 | 0.66 | 0.52 | 93 | 1013.0 |
| 20260905170105 | 73 | 0 | 0.0 | 7.0 | 0.44 | 0.58 | 0.44 | 92 | 1013.8 |
| 20260905164605 | 75 | 292 | 1.0 | 5.0 | 0.32 | 0.46 | 0.32 | 91 | 1014.8 |
| 20260905163058 | 76 | 0 | 0.0 | 3.0 | 0.19 | 0.33 | 0.19 | 90 | 1014.5 |
| 20260905161602 | 78 | 0 | 0.0 | 1.0 | 0.08 | 0.22 | 0.08 | 87 | 1014.3 |
| 20260905160106 | 81 | 213 | 0.0 | 3.0 | 0.00 | 0.14 | 0.00 | 80 | 1013.7 |
| 20260905154605 | 83 | 54 | 0.0 | 0.0 | 0.00 | 0.14 | 0.00 | 79 | 1013.0 |
| 20260905153102 | 82 | 0 | 0.0 | 5.0 | 0.00 | 0.14 | 0.00 | 78 | 1013.2 |
| 20260905151602 | 83 | 0 | 1.0 | 7.0 | 0.00 | 0.14 | 0.00 | 76 | 1013.3 |
| 20260905144558 | 84 | 274 | 0.0 | 4.0 | 0.00 | 0.14 | 0.00 | 76 | 1013.3 |
| 20260905143104 | 82 | 0 | 0.0 | 2.0 | 0.00 | 0.14 | 0.00 | 85 | 1013.1 |
| 20260905141559 | 80 | 0 | 0.0 | 7.0 | 0.00 | 0.14 | 0.00 | 84 | 1013.2 |
| 20260905140107 | 76 | 0 | 0.0 | 4.0 | 0.00 | 0.14 | 0.00 | 91 | 1012.9 |
| 20260905134604 | 75 | 215 | 0.0 | 2.0 | 0.00 | 0.14 | 0.00 | 95 | 1012.7 |
| 20260905133100 | 74 | 0 | 0.0 | 3.0 | 0.00 | 0.14 | 0.00 | 97 | 1012.7 |
| 20260905131558 | 74 | 0 | 0.0 | 3.0 | 0.00 | 0.14 | 0.00 | 98 | 1012.8 |
| 20260905130101 | 73 | 0 | 0.0 | 0.0 | 0.00 | 0.14 | 0.00 | 98 | 1012.4 |
| 20260905124559 | 73 | 0 | 0.0 | 0.0 | 0.00 | 0.14 | 0.00 | 98 | 1012.7 |
| 20260905123106 | 72 | 0 | 0.0 | 0.0 | 0.00 | 0.14 | 0.00 | 98 | 1012.7 |
| 20260905121555 | 71 | 0 | 0.0 | 0.0 | 0.00 | 0.14 | 0.00 | 98 | 1012.7 |
| 20260905120104 | 70 | 0 | 0.0 | 0.0 | 0.00 | 0.14 | 0.00 | 97 | 1012.4 |
| 20260905114556 | 70 | 0 | 0.0 | 0.0 | 0.00 | 0.14 | 0.00 | 97 | 1012.4 |
| 20260905113108 | 69 | 0 | 0.0 | 0.0 | 0.00 | 0.14 | 0.00 | 97 | 1012.4 |
| 20260905111605 | 69 | 0 | 0.0 | 0.0 | 0.00 | 0.14 | 0.00 | 97 | 1012.2 |
| 20260905110101 | 69 | 0 | 0.0 | 0.0 | 0.00 | 0.14 | 0.00 | 96 | 1012.2 |
| 20260905104609 | 69 | 0 | 0.0 | 0.0 | 0.00 | 0.14 | 0.00 | 96 | 1012.1 |
| 20260905103053 | 69 | 0 | 0.0 | 0.0 | 0.00 | 0.14 | 0.00 | 97 | 1011.9 |
| 20260905101604 | 69 | 0 | 0.0 | 0.0 | 0.00 | 0.14 | 0.00 | 96 | 1011.7 |
| 20260905100114 | 70 | 0 | 0.0 | 0.0 | 0.00 | 0.14 | 0.00 | 96 | 1011.7 |
| 20260905094557 | 70 | 0 | 0.0 | 0.0 | 0.00 | 0.14 | 0.00 | 96 | 1011.8 |
| 20260905093102 | 70 | 0 | 0.0 | 0.0 | 0.00 | 0.14 | 0.00 | 96 | 1011.6 |
| 20260905091602 | 70 | 0 | 0.0 | 1.0 | 0.00 | 0.14 | 0.00 | 96 | 1011.4 |
| 20260905090135 | 70 | 0 | 0.0 | 0.0 | 0.00 | 0.14 | 0.00 | 96 | 1011.4 |
| 20260905084613 | 70 | 0 | 0.0 | 0.0 | 0.00 | 0.14 | 0.00 | 96 | 1011.5 |
| 20260905083059 | 70 | 0 | 0.0 | 1.0 | 0.00 | 0.14 | 0.00 | 96 | 1011.6 |
| 20260905081557 | 70 | 42 | 0.0 | 0.0 | 0.00 | 0.14 | 0.00 | 96 | 1011.8 |
| 20260905080101 | 70 | 0 | 0.0 | 1.0 | 0.00 | 0.14 | 0.00 | 96 | 1011.9 |
| 20260905074551 | 70 | 0 | 0.0 | 1.0 | 0.00 | 0.14 | 0.00 | 96 | 1012.0 |
| 20260905073055 | 70 | 0 | 0.0 | 2.0 | 0.00 | 0.14 | 0.00 | 96 | 1012.0 |
| 20260905071602 | 70 | 0 | 0.0 | 0.0 | 0.00 | 0.14 | 0.00 | 96 | 1012.1 |
| 20260905070104 | 71 | 0 | 0.0 | 1.0 | 0.00 | 0.14 | 0.00 | 96 | 1012.3 |
| 20260905064552 | 70 | 0 | 0.0 | 0.0 | 0.00 | 0.14 | 0.00 | 96 | 1012.5 |
| 20260905063101 | 71 | 0 | 0.0 | 1.0 | 0.00 | 0.14 | 0.00 | 96 | 1012.5 |
| 20260905061559 | 71 | 0 | 0.0 | 1.0 | 0.00 | 0.14 | 0.00 | 96 | 1012.8 |
| 20260905060105 | 71 | 0 | 0.0 | 0.0 | 0.00 | 0.14 | 0.00 | 96 | 1013.1 |
| 20260905054559 | 71 | 0 | 0.0 | 1.0 | 0.00 | 0.14 | 0.00 | 95 | 1013.2 |
| 20260905053057 | 71 | 0 | 0.0 | 1.0 | 0.00 | 0.14 | 0.00 | 96 | 1013.5 |
| 20260905051558 | 71 | 0 | 0.0 | 2.0 | 0.00 | 0.14 | 0.00 | 96 | 1013.8 |
| 20260905050105 | 71 | 0 | 0.0 | 0.0 | 0.00 | 0.14 | 0.00 | 96 | 1014.0 |
| 20260905044558 | 71 | 0 | 0.0 | 1.0 | 0.00 | 0.14 | 0.00 | 96 | 1014.2 |
| 20260905043103 | 71 | 0 | 0.0 | 0.0 | 0.00 | 0.14 | 0.00 | 95 | 1014.4 |
| 20260905041600 | 72 | 0 | 0.0 | 0.0 | 0.00 | 0.14 | 0.00 | 95 | 1014.5 |
| 20260905040057 | 72 | 0 | 0.0 | 0.0 | 0.00 | 0.14 | 0.00 | 95 | 1014.6 |
| 20260905034609 | 72 | 0 | 0.0 | 0.0 | 0.00 | 0.14 | 0.14 | 95 | 1014.6 |
| 20260905033114 | 72 | 0 | 0.0 | 1.0 | 0.00 | 0.14 | 0.14 | 96 | 1014.6 |
| 20260905031603 | 72 | 0 | 0.0 | 1.0 | 0.00 | 0.14 | 0.14 | 95 | 1014.6 |
| 20260905024604 | 73 | 0 | 0.0 | 2.0 | 0.00 | 0.14 | 0.14 | 95 | 1014.5 |
| 20260905023059 | 73 | 0 | 0.0 | 0.0 | 0.00 | 0.14 | 0.14 | 95 | 1014.6 |
| 20260905021557 | 73 | 0 | 0.0 | 0.0 | 0.00 | 0.14 | 0.14 | 95 | 1014.7 |
| 20260905020103 | 73 | 0 | 0.0 | 0.0 | 0.00 | 0.14 | 0.14 | 95 | 1014.9 |
| 20260905014607 | 73 | 0 | 0.0 | 1.0 | 0.00 | 0.14 | 0.14 | 95 | 1014.7 |
| 20260905013117 | 73 | 67 | 1.0 | 2.0 | 0.00 | 0.14 | 0.14 | 95 | 1014.6 |
| 20260905011604 | 73 | 0 | 0.0 | 0.0 | 0.00 | 0.14 | 0.14 | 95 | 1014.3 |
| 20260905010106 | 74 | 0 | 0.0 | 2.0 | 0.00 | 0.14 | 0.14 | 95 | 1013.9 |
| 20260905004647 | 74 | 0 | 0.0 | 3.0 | 0.00 | 0.14 | 0.14 | 94 | 1013.7 |
| 20260905003057 | 74 | 0 | 0.0 | 0.0 | 0.00 | 0.14 | 0.14 | 95 | 1013.7 |
| 20260905001559 | 74 | 0 | 0.0 | 0.0 | 0.01 | 0.14 | 0.14 | 94 | 1012.9 |
| 20260905000107 | 74 | 0 | 0.0 | 2.0 | 0.02 | 0.14 | 0.14 | 94 | 1012.7 |
| 20260904234604 | 74 | 0 | 0.0 | 2.0 | 0.02 | 0.14 | 0.14 | 93 | 1012.5 |
| 20260904233059 | 74 | 0 | 0.0 | 3.0 | 0.02 | 0.14 | 0.14 | 93 | 1013.8 |
| 20260904231557 | 75 | 62 | 0.0 | 2.0 | 0.01 | 0.13 | 0.13 | 94 | 1015.3 |